This demonstration page uses our WeatherBlox Daily Observations layout. Learn more.

Left ArrowRight Arrow

Hourly Observations for February 24, 2022

Temp ( °F °C ) Dew Point ( °F °C ) Humidity (%) Winds ( mph kmh ) Pressure ( in mb ) Visibility ( mi km ) Precip ( " mm )
12:56 am 00:56 Cloudy 9 -13 -1 -18.6 63 63 NE 7 11 30.58 1036 10 16 0.00 0.00
1:56 am 01:56 Cloudy 8 -13.4 -1 -18.4 66 66 NE 9 15 30.55 1035 10 16 0.00 0.00
2:56 am 02:56 Cloudy 7 -14 -2 -19 66 66 NE 12 19 30.51 1033 10 16 0.00 0.00
3:56 am 03:56 Mostly Cloudy 5 -14.9 -4 -20.1 65 65 NE 7 11 30.49 1033 10 16 0.00 0.00
4:56 am 04:56 Partly Cloudy 5 -15.2 -4 -20.2 66 66 N 6 9 30.51 1033 10 16 0.00 0.00
5:56 am 05:56 Cloudy 5 -14.8 -4 -20 65 65 N 5 7 30.52 1033 10 16 0.00 0.00
6:11 am 06:11 Cloudy with Light Snow 5 -15 -4 -20 66 66 NNE 6 9 30.52 1033 10 16 0.00 0.00
6:56 am 06:56 Cloudy 6 -14.7 -4 -19.9 65 65 N 7 11 30.50 1033 10 16 0.00 0.00
7:56 am 07:56 Cloudy 6 -14.4 -4 -19.8 64 64 N 7 11 30.50 1033 10 16 0.00 0.00
8:56 am 08:56 Cloudy 8 -13.6 -3 -19.2 63 63 N 7 11 30.50 1033 10 16 0.00 0.00
9:56 am 09:56 Mostly Cloudy with Light Snow 10 -12.2 -1 -18.2 61 61 N 6 9 30.48 1032 9 14 0.00 0.00
10:56 am 10:56 Mostly Cloudy with Light Snow 12 -11 2 -16.9 62 62 NE 14 22 30.44 1031 5 8 0.00 0.00
11:56 am 11:56 Partly Cloudy with Isolated Snow Showers 14 -10 4 -15.7 63 63 NNW 6 9 30.44 1031 2 3 0.00 0.00
12:11 pm 12:11 Cloudy with Haze 14 -10 5 -15 67 67 NNW 7 11 30.45 1031 3 5 0.00 0.00
12:56 pm 12:56 Cloudy with Light Snow 15 -9.4 5 -14.8 65 65 N 9 15 30.41 1030 4 6 0.00 0.00
1:56 pm 13:56 Cloudy 16 -8.8 6 -14.4 64 64 N 7 11 30.38 1029 7 11 0.00 0.00
2:56 pm 14:56 Mostly Cloudy with Light Snow 17 -8.2 6 -14.4 61 61 NNE 8 13 30.35 1028 6 10 0.00 0.00
2:57 pm 14:57 Cloudy with Light Snow 17 -8.3 6 -14.5 61 61 NNE 9 15 30.35 1028 7 11 0.00 0.00
3:56 pm 15:56 undefined 17 -8.3 5 -14.9 59 59 N 10 17 30.35 1028 10 16 0.00 0.00
4:56 pm 16:56 Cloudy with Light Snow 17 -8.3 7 -13.7 65 65 N 10 17 30.36 1028 4 6 0.00 0.00
5:56 pm 17:56 Mostly Cloudy 16 -8.8 7 -14 66 66 NNW 9 15 30.39 1029 8 13 0.00 0.00
6:26 pm 18:26 Mostly Cloudy with Light Snow 16 -9 9 -13 73 73 NW 10 17 30.41 1030 2 4 0.00 0.00
6:41 pm 18:41 Mostly Cloudy with Haze 16 -9 7 -14 67 67 NNW 8 13 30.42 1030 5 8 0.00 0.00
6:56 pm 18:56 Mostly Cloudy 15 -9.5 7 -14 70 70 NNW 8 13 30.42 1030 10 16 0.00 0.00
7:56 pm 19:56 Mostly Cloudy 15 -9.6 6 -14.2 69 69 NNW 9 15 30.44 1031 8 13 0.00 0.00
8:56 pm 20:56 Mostly Cloudy 13 -10.5 5 -14.8 71 71 NW 10 17 30.46 1032 8 13 0.00 0.00
9:56 pm 21:56 Mostly Cloudy with Light Snow 11 -11.6 2 -16.4 68 68 NNW 12 19 30.48 1032 3 4 0.00 0.00
10:41 pm 22:41 Mostly Cloudy 10 -12 3 -16 72 72 NNW 13 20 30.49 1033 9 14 0.00 0.00
10:56 pm 22:56 Mostly Cloudy 10 -12.3 2 -16.9 69 69 NNW 9 15 30.49 1033 10 16 0.00 0.00
11:56 pm 23:56 Mostly Clear 8 -13.6 0 -17.6 72 72 NW 8 13 30.50 1033 10 16 0.00 0.00

Powered by AerisWeather